Location: Andrest
(43.3200°N, 0.0641°E)
Time: 10:28:28
(UTC+00:00)

Cosmos 1603 - Pass Details

Date: 01 December 2020
Orbit: 831 x 859 km, 71.0° (Epoch: 23 January)

Event Time Altitude Azimuth Distance (km) Brightness Sun altitude
Rises 17:43:59 0° 191° (S) 3,375 7.2 -14.0°
Reaches altitude 10° 17:46:27 10° 187° (S) 2,441 6.4 -14.4°
Maximum altitude 17:51:55 58° 110° (ESE) 965 3.7 -15.4°
Enters shadow 17:56:14 17° 35° (NE) 2,015 5.2 -16.1°
